Powrót do katalogu

STARLINK-34429

AktywnyŁącznośćVLEO
NORAD 64464·PAYLOAD·🇺🇸 United States

Wystrzelony Jun 18, 2025 z Cape Canaveral Space Force Station

Loading…

Następne Przeloty (najbliższe 24 godziny)

TLE

ŚwieżeSource: CelesTrak SupGP

Epoka: Sep 14, 2026, 21:03 UTC

1 64464C 25130AC  26257.87756944  .00028697  00000+0  84810-3 0  2579
2 64464  53.1580 285.6593 0001185  89.6244  15.8468 15.34366928    14

Śledź STARLINK-34429 w czasie rzeczywistym z AllMySat

Download on the App Store